Airfield :
LOGIN :

Register | Disclaimer

   EN    FR    IT 

 










Legend :    VFR   Marginal VFR   IFR   Intensive IFR   Very Intensive IFR
Visi :
Ceiling :
>= 8 km
>= 3000ft
5 to 8 km
1000 to 3000 ft
1500m to 5 km
500 to 1000 ft
800 to 1500m
200 to 500 ft
< 800m
< 200 ft
Symbols :   Thunderstorms  Fog  Heavy snow  Heavy precipitations  Wind > 20 kt
SIGMETs :     Misc.  Thunderstorms  Icing  Turbulence  Mountain Waves  Volcanic Ashes






- Airport Elevation : 187 ft


ETNW - Wunstorf AB

CURRENT METAR :
  • 160720Z 02003KT 9999 FEW070 SCT130 05/M00 Q1027 BLU+BLU

EXPIRED METARs :
  • 160620Z 33006KT 9999 FEW070 SCT100 04/M01 Q1027 BLU+BLU
  • 160520Z 33004KT 9999 SCT060 SCT100 BKN140 03/M01 Q1027 BLU BLU

TAF TAF ETNW
Valid from the 16 at 05:00 until the 17 at 05:00 UTC


160420Z 1605/1705 35007KT 9999 NSW BKN080 BKN220 BY ETGL



MET'MAP, your aeronautical weather chart ! - Copyright ORBIFLY December 2007 - Disclaimer

ORBIFLY MET'MAP TEAM :

Programming & Development : Alexandra Zaïnal
Concept & original design : Baudouin d'Aumeries
Assistance for programming : Marc-Olivier Méhu
Technical & hardware support : Manuel Goepfert

Contact : metmap@orbifly.com




SOURCES & CREDITS :

   NOAA